Date,TemperatureHighF,TemperatureAvgF,TemperatureLowF,DewpointHighF,DewpointAvgF,DewpointLowF,HumidityHigh,HumidityAvg,HumidityLow,PressureMaxIn,PressureMinIn,WindSpeedMaxMPH,WindSpeedAvgMPH,GustSpeedMaxMPH,PrecipitationSumIn
2013-9-1,81.3,69.6,63.7,66.7,64.2,61.2,99,85,57,29.70,29.48,27,6,28,0.11
2013-9-2,78.1,69.1,63.7,68.5,64.3,60.3,99,86,64,29.74,29.55,16,5,17,1.10
2013-9-3,82.9,69.5,63.3,69.6,64.3,61.3,99,85,53,29.75,29.52,35,5,35,0.38
2013-9-4,79.9,70.4,63.3,70.3,65.3,60.8,97,85,62,29.74,29.50,17,5,17,0.33
2013-9-5,81.5,70.6,63.9,69.4,65.8,61.5,99,86,57,29.75,29.51,17,4,17,0.06
2013-9-6,84.4,70.1,64.4,70.5,65.3,60.1,99,87,52,29.69,29.41,23,5,23,0.58
2013-9-7,77.7,68.9,63.3,69.4,65.2,62.2,99,89,65,29.72,29.53,17,3,17,0.01
2013-9-8,81.5,70.6,62.6,70.5,66.3,61.7,99,88,58,29.78,29.45,21,4,21,0.00
2013-9-9,84.2,69.3,63.1,70.0,65.4,18.5,99,89,53,29.69,29.53,17,2,17,1.65
2013-9-10,83.7,70.1,63.9,70.2,65.8,62.4,99,88,54,29.70,29.49,16,3,16,2.26
2013-9-11,79.7,68.3,65.1,70.0,66.3,64.8,99,94,63,29.71,29.50,17,3,17,0.05
2013-9-12,84.0,70.6,64.2,69.3,65.4,59.9,99,86,48,29.67,29.42,23,4,23,0.02
2013-9-13,85.3,70.5,66.2,70.9,65.5,60.8,99,86,45,29.60,29.36,23,4,23,1.11
2013-9-14,84.0,70.6,65.8,70.3,66.5,63.7,99,88,55,31.07,29.45,15,4,15,0.17
2013-9-15,82.4,71.4,65.7,70.2,66.5,63.5,99,86,59,29.75,29.34,18,6,18,0.41
2013-9-16,81.9,69.7,64.4,69.8,66.0,62.2,99,90,62,29.78,29.43,30,4,30,2.00
2013-9-17,82.2,70.4,63.0,69.4,65.1,60.4,99,85,54,29.64,29.42,19,5,21,0.00
2013-9-18,81.7,69.3,65.7,70.2,66.9,64.0,99,93,58,29.68,29.47,13,2,13,1.51
2013-9-19,79.2,70.2,64.9,69.1,66.6,64.0,99,89,64,29.69,29.50,17,5,17,0.04
2013-9-20,83.5,71.7,66.4,68.5,66.8,60.8,99,86,57,29.65,29.41,22,4,22,0.01
2013-9-21,83.5,72.3,66.7,71.2,68.5,64.0,99,89,54,29.60,29.30,20,4,20,0.01
2013-9-22,74.1,68.0,64.2,69.1,66.9,63.1,99,97,79,29.64,29.46,18,3,18,0.31
2013-9-23,82.4,71.9,64.4,69.6,66.1,62.2,99,84,56,29.64,29.44,19,5,19,0.00
2013-9-24,83.7,73.4,67.6,71.8,66.9,64.2,93,81,57,29.62,29.36,23,8,23,0.00
2013-9-25,79.7,71.0,67.8,67.1,63.5,55.8,94,78,44,29.61,29.42,30,8,30,0.00
2013-9-26,81.3,70.1,64.6,67.1,64.4,61.2,95,83,60,29.65,29.42,57,5,57,0.57
2013-9-27,81.1,70.7,63.9,66.2,63.1,59.7,98,78,53,29.66,29.40,22,6,22,0.00
2013-9-28,80.6,70.4,64.9,68.4,65.6,61.5,99,85,54,29.66,29.49,17,4,17,0.17
2013-9-29,83.5,70.7,65.7,68.4,66.0,63.3,99,86,54,29.65,29.40,21,5,21,0.14
2013-9-30,81.1,69.2,63.7,67.5,64.8,58.1,99,88,47,29.64,29.45,20,-15,20,1.10